Theta_e
284 284 284 284 285 285 285 284 284 284 285 286 287 288 288 288 285 284 283 284 282 281 283 283 283 285 286 286 287 287 286 288 288 288 288 288 287 292 297 300 301 303 303 301 300 299 299 300 300 300 301 301 301 302 303 304 304 303 304 305 305 304 304 303 303 303 303 303 302 302 301 301 301 301
285 285 284 284 284 284 284 284 284 283 284 284 284 285 286 287 286 285 283 284 283 281 282 284 284 283 285 286 286 286 286 289 288 287 288 288 287 291 295 298 300 301 302 301 300 300 300 299 299 299 300 299 300 302 302 302 303 300 302 303 303 303 303 301 301 301 302 302 302 301 301 300 300 300
285 285 284 285 284 284 284 284 283 283 283 284 283 283 284 284 285 285 284 282 285 285 284 283 284 284 284 285 286 286 286 288 288 287 287 287 289 290 291 295 298 299 300 301 300 300 300 299 298 298 298 299 299 300 301 301 302 301 301 302 302 303 303 301 301 301 301 301 301 301 301 300 300 301
285 284 284 284 284 285 284 284 284 284 283 283 283 283 283 283 283 284 284 283 283 283 284 284 284 285 284 284 284 284 285 287 288 286 287 287 289 287 287 292 296 297 299 301 300 300 300 299 298 298 298 298 299 299 300 301 301 301 300 301 302 302 301 300 300 301 301 300 300 300 300 300 300 300
284 284 284 285 285 285 284 284 284 284 283 283 283 283 283 283 283 282 282 282 283 284 282 283 283 284 283 282 283 284 284 284 285 287 286 286 286 285 286 287 291 295 297 300 300 299 299 299 298 298 297 297 298 299 299 300 299 299 299 300 300 301 300 300 300 300 300 300 299 300 299 299 299 299
284 284 283 283 284 284 284 284 284 284 284 283 282 282 282 283 283 283 283 283 283 283 282 281 280 280 282 283 283 283 283 283 284 284 285 285 285 285 285 285 286 293 296 298 299 299 299 299 299 298 297 297 297 298 299 298 298 298 298 298 298 299 299 299 300 300 299 299 299 299 298 298 298 299
282 282 283 283 283 284 283 283 283 283 283 283 283 283 283 282 283 283 283 283 283 283 283 282 282 280 281 282 283 283 284 285 284 284 284 285 285 285 284 284 284 290 294 296 297 298 298 298 298 298 297 297 296 297 298 298 298 298 298 298 297 297 297 298 299 299 299 298 299 298 298 298 298 298
281 281 281 282 282 282 282 283 283 282 282 282 282 283 283 282 283 283 282 282 283 283 283 282 282 281 280 281 282 283 284 284 283 283 284 284 284 284 284 283 283 286 292 294 296 297 298 297 298 298 297 297 297 297 297 297 297 297 297 297 297 296 297 297 298 298 297 298 298 298 298 298 298 298
281 281 281 281 281 281 281 282 282 282 282 282 282 282 282 282 282 283 282 282 282 282 282 283 281 281 280 281 281 282 282 282 282 282 282 283 283 283 282 283 283 286 289 292 294 295 297 297 297 297 297 297 297 297 297 297 297 296 296 296 296 296 296 296 296 297 296 296 296 296 297 297 297 297
280 281 281 280 281 280 280 281 281 282 282 282 282 282 282 282 282 281 281 282 282 281 282 282 282 279 279 280 280 280 282 282 280 280 281 280 281 281 280 281 282 283 284 285 288 292 294 296 296 297 297 297 297 297 297 296 297 296 295 295 295 295 295 295 296 296 296 295 295 295 296 296 297 296
279 280 280 280 280 280 281 281 281 281 281 282 282 282 282 282 282 281 281 281 281 281 281 281 282 281 280 280 281 280 281 282 282 281 280 279 280 279 280 280 281 282 282 285 288 289 290 292 293 294 296 297 297 297 296 296 296 295 294 294 294 294 295 295 295 295 294 294 294 294 294 295 296 296
279 279 280 280 280 280 281 281 281 281 281 281 281 282 282 282 282 281 282 281 281 281 281 281 281 280 280 278 279 279 279 279 280 281 281 279 279 278 280 281 281 280 281 280 281 287 289 290 292 294 295 295 296 296 295 295 294 294 294 294 294 294 294 295 294 294 293 293 293 293 293 294 294 295
279 280 280 280 280 281 282 284 284 284 285 282 281 281 282 281 281 281 281 281 281 281 281 281 281 280 278 279 279 278 278 279 280 280 279 279 281 280 279 279 281 281 279 280 280 281 283 285 285 287 288 290 293 293 294 293 293 294 295 294 294 294 294 294 294 293 293 293 292 292 292 293 293 294
278 279 279 280 282 283 283 284 285 286 286 287 285 283 282 281 281 281 281 281 281 281 280 281 281 280 280 280 279 279 280 281 280 279 279 279 279 277 278 279 279 281 279 278 278 279 282 283 283 284 285 287 289 290 291 291 292 293 294 294 294 294 294 293 293 293 293 293 292 292 292 292 292 292
277 278 279 279 280 281 281 281 283 284 285 286 287 287 287 286 283 281 281 281 281 281 281 281 281 281 281 281 281 280 280 280 280 281 280 280 279 277 277 276 278 280 280 278 277 278 280 282 281 283 284 285 286 288 289 292 293 293 294 294 294 294 293 293 293 292 292 292 292 292 292 292 292 291
276 277 277 278 279 279 279 280 280 282 283 285 285 286 287 287 288 288 284 282 281 281 281 281 281 282 282 282 282 280 280 279 279 280 280 280 279 278 278 279 279 278 281 278 278 278 280 282 281 281 283 284 285 286 289 292 293 294 294 294 294 294 293 293 293 292 292 292 291 292 292 292 292 291
275 275 276 276 277 278 281 280 280 280 280 283 284 285 286 286 287 288 289 289 286 284 282 282 282 282 283 283 283 283 281 282 280 280 280 280 280 280 279 280 281 278 281 279 278 277 279 280 280 280 282 283 283 285 289 292 293 294 294 294 294 293 293 293 292 292 292 292 291 291 291 292 291 291
274 274 274 274 275 276 277 277 278 278 278 279 279 280 280 281 282 285 287 287 288 287 285 283 282 284 284 283 284 285 284 282 281 281 280 280 280 280 280 282 282 279 281 279 279 278 279 279 279 279 280 282 282 283 286 291 292 294 294 294 294 293 293 292 292 292 291 292 291 291 291 291 291 291
274 274 274 274 273 274 274 276 277 277 278 279 279 279 279 279 280 281 281 282 283 284 285 285 285 285 285 285 285 285 284 284 284 284 283 283 282 282 282 282 282 280 281 281 280 277 280 280 278 278 280 281 281 282 286 289 291 293 293 293 294 293 293 292 292 292 291 291 291 291 291 291 291 291
272 273 273 272 272 272 273 276 278 278 277 276 276 277 278 279 280 280 283 285 285 284 284 284 285 285 286 288 286 286 285 283 284 284 284 283 283 281 280 279 280 280 280 280 280 279 280 279 278 278 279 280 279 280 281 286 290 292 293 293 293 293 293 292 292 292 291 291 291 291 291 291 291 290
270 270 271 271 271 271 271 274 277 278 278 275 275 275 276 277 278 279 281 284 286 287 288 288 288 289 290 290 291 291 291 287 284 283 282 280 281 280 278 279 279 279 279 279 280 280 279 278 279 278 278 278 278 279 279 281 286 290 291 292 293 293 292 292 292 291 291 291 291 291 291 291 290 289
270 270 273 273 272 272 272 276 277 278 276 274 275 275 276 276 277 278 280 281 282 285 287 288 288 288 289 290 291 291 291 291 289 282 280 282 282 279 280 279 280 280 280 279 281 278 279 280 278 277 276 277 277 278 279 279 281 286 289 291 292 292 292 292 291 291 291 291 291 291 291 290 289 288
268 269 270 272 272 272 272 276 277 277 276 273 273 274 274 273 274 277 280 279 279 280 280 281 283 284 286 286 286 287 290 290 289 287 284 284 282 280 280 280 280 279 280 281 281 278 278 279 277 278 274 273 275 277 278 279 279 281 284 287 289 291 291 291 291 291 291 291 290 291 291 290 289 285
267 268 268 270 273 275 275 276 277 277 278 275 274 273 273 273 273 276 277 279 280 279 280 280 281 281 282 283 284 284 285 286 287 288 286 285 284 282 281 281 280 279 280 281 282 279 280 280 276 279 277 276 274 274 277 277 278 279 282 284 285 289 290 289 289 291 291 290 290 290 290 290 289 284
267 267 268 269 272 274 275 275 276 276 276 276 274 274 274 274 276 278 277 278 280 279 280 280 280 280 281 281 282 282 283 284 285 286 287 286 285 284 282 281 280 280 282 281 284 280 278 278 277 278 276 276 274 273 274 277 277 278 281 283 283 285 286 286 287 287 289 290 290 290 289 289 289 285
268 268 268 268 270 274 274 275 275 276 276 276 273 273 277 279 280 277 277 278 279 279 279 279 279 280 280 280 280 281 282 283 283 284 285 286 285 285 285 283 282 280 281 282 285 281 280 277 278 277 276 276 273 274 273 273 276 277 279 282 283 284 285 285 285 285 285 286 286 288 287 289 289 288
267 268 268 268 272 274 274 275 276 276 277 276 274 277 278 278 279 279 277 277 277 279 280 279 278 279 279 279 279 280 280 282 283 283 284 285 285 285 285 285 285 284 285 283 283 281 281 279 279 278 277 277 276 273 273 273 273 276 277 279 281 282 283 284 283 283 284 284 284 288 288 288 288 288
268 268 267 268 273 274 275 275 276 276 276 274 277 277 278 278 277 275 276 276 276 277 278 279 279 278 279 279 279 279 280 281 282 282 283 284 284 285 284 284 284 285 285 281 282 282 281 280 279 279 280 277 276 274 273 275 274 275 274 278 279 280 281 282 282 282 283 283 283 284 283 283 284 284
268 271 274 275 275 275 276 276 276 275 274 275 275 276 276 276 274 274 275 275 276 276 276 278 279 279 279 279 280 281 281 281 281 281 281 283 283 284 284 284 284 284 284 281 281 282 281 281 280 279 279 279 277 277 277 274 273 274 275 275 274 277 279 280 281 281 280 280 280 281 281 281 281 283
275 275 275 275 275 274 273 270 269 269 269 273 275 276 276 273 273 274 273 274 274 275 276 278 279 280 280 280 280 281 280 279 279 279 280 279 280 281 281 281 279 277 279 281 281 282 281 281 281 279 278 278 279 277 277 276 273 274 275 274 275 277 277 278 279 279 279 278 278 278 278 279 279 280
268 269 270 270 272 273 275 275 275 274 274 272 272 272 272 272 273 273 273 273 274 275 276 278 279 281 281 281 280 279 278 278 279 280 279 279 278 278 279 280 279 276 274 276 280 281 281 281 281 280 277 277 278 278 278 277 274 273 274 275 275 271 274 276 275 277 277 277 277 276 276 276 276 278
266 266 269 270 268 268 268 268 268 269 269 270 270 271 271 272 273 274 275 276 275 276 277 278 280 281 281 280 279 279 278 278 279 279 278 278 278 277 277 277 277 276 273 273 274 276 278 281 281 280 279 279 277 277 277 276 275 274 273 274 275 275 275 273 275 275 276 276 275 274 275 274 274 275
266 266 266 266 266 266 266 267 267 268 269 269 269 270 270 271 272 273 274 274 275 276 277 277 278 279 280 280 280 279 278 278 278 278 278 278 277 274 276 276 277 275 272 272 272 273 274 275 276 278 279 279 279 278 275 273 274 274 273 273 274 273 274 274 274 274 274 274 273 273 272 273 274 274
271 270 269 269 269 269 268 268 268 268 269 269 269 270 272 272 272 273 274 274 276 277 277 277 278 279 280 280 280 279 278 278 278 277 279 276 277 274 274 275 276 276 274 273 271 271 272 272 272 272 271 271 271 274 276 276 274 274 274 274 273 272 273 274 274 274 274 273 273 271 271 272 273 274
270 269 269 269 269 269 269 269 269 269 269 269 269 269 270 271 272 272 273 274 277 278 277 278 278 279 279 280 280 279 278 278 278 277 277 277 276 275 275 275 275 274 273 272 270 271 271 271 271 270 270 270 271 271 274 272 275 273 273 273 273 273 272 273 273 273 273 273 273 270 271 271 271 272
269 268 268 268 268 269 269 269 269 269 269 269 269 269 269 270 271 271 272 275 276 277 278 278 278 278 279 279 279 279 279 278 278 276 276 276 275 275 275 275 275 274 273 272 270 271 271 271 272 271 269 269 269 269 270 275 275 274 272 271 272 271 272 272 273 273 272 272 272 271 269 268 270 272
267 267 267 267 268 268 268 269 269 270 270 269 269 269 269 269 271 272 273 275 276 277 277 278 278 278 278 279 279 278 278 277 277 276 275 275 275 275 274 274 274 273 272 272 271 270 271 271 272 272 271 269 268 269 270 271 271 275 273 271 270 271 271 271 271 270 271 272 271 271 270 270 270 271
267 267 267 268 268 269 270 270 270 270 270 270 269 269 270 270 271 272 273 274 275 276 277 277 277 278 279 278 278 277 277 277 277 275 274 275 274 274 274 273 273 272 271 271 270 270 270 271 271 272 272 270 269 269 268 267 268 270 275 273 270 270 271 270 269 269 270 271 270 271 272 270 270 271
266 266 266 267 268 269 269 270 270 270 270 270 270 270 270 271 271 272 273 274 275 276 277 277 277 278 278 276 276 276 276 275 275 275 274 274 274 273 273 273 272 271 270 269 269 269 270 270 271 272 272 271 271 271 271 267 266 269 274 276 273 271 270 270 269 269 269 269 270 271 270 272 273 274
263 264 264 264 265 265 266 267 268 269 270 270 270 270 270 271 271 272 274 275 275 275 276 276 276 275 275 276 275 275 275 274 274 274 273 273 273 273 273 273 272 270 269 268 267 267 268 269 270 271 272 272 270 271 271 269 268 270 271 274 276 273 271 271 269 269 268 269 270 268 267 269 266 269
262 262 262 263 263 264 264 266 268 269 270 270 270 271 271 271 272 273 274 275 275 274 274 275 275 274 273 273 275 275 274 274 274 274 273 273 272 272 272 272 270 269 268 267 267 267 267 269 271 273 269 268 270 271 269 267 264 267 268 271 275 275 274 273 271 269 267 270 268 266 266 265 265 267
260 260 261 261 262 262 264 266 267 268 271 271 271 271 271 272 273 275 275 276 276 275 275 275 276 276 275 275 274 274 274 274 273 273 272 272 271 271 271 271 269 269 268 267 267 267 268 270 270 269 269 269 269 268 267 267 266 266 268 270 271 274 275 274 273 272 271 269 267 265 264 265 266 263
259 259 259 260 261 262 264 265 266 267 269 271 271 271 272 272 273 273 274 275 275 275 274 275 275 275 276 276 276 275 274 274 273 272 271 271 271 270 270 270 270 269 269 269 268 268 268 269 268 268 268 268 268 269 268 267 266 267 266 266 268 270 272 274 274 274 274 273 272 269 268 265 265 260
258 258 259 260 260 261 263 264 265 266 267 269 271 273 273 273 274 274 274 274 274 274 274 274 274 274 274 274 274 273 273 273 272 271 270 270 270 270 270 270 269 269 268 267 267 267 267 267 267 268 267 266 268 267 267 266 265 266 266 266 266 266 266 267 270 273 274 274 274 273 273 272 272 271
258 258 258 259 260 261 261 262 263 264 265 266 268 269 270 271 271 272 272 272 272 273 273 273 273 273 272 272 272 271 271 272 271 270 270 270 269 269 269 269 268 268 267 267 266 266 266 266 267 267 267 267 266 266 267 266 266 265 265 265 264 265 265 265 265 265 265 264 269 271 271 271 271 271
Wind_Speed
6 6 6 7 7 7 6 6 6 7 7 6 7 7 10 10 11 12 12 12 7 4 10 7 6 12 11 11 10 10 10 12 13 10 11 11 10 13 22 23 23 24 24 23 23 22 22 21 21 21 20 20 19 18 18 17 16 5 12 20 17 16 18 16 16 16 14 14 14 13 13 13 13 12
6 6 6 6 7 6 6 7 6 6 7 7 7 7 8 8 13 13 12 15 6 6 5 9 6 6 11 10 10 10 11 15 15 11 12 12 12 15 21 22 23 24 24 23 23 24 23 22 22 22 21 21 21 20 20 18 15 5 7 7 10 14 17 15 16 17 16 16 16 15 15 14 13 13
6 6 7 6 7 6 7 7 6 6 6 7 7 7 6 8 11 12 11 14 9 6 8 8 8 8 10 10 10 9 10 12 15 12 11 12 14 17 15 19 21 23 24 23 23 24 24 24 23 23 22 22 22 22 21 20 21 12 11 13 13 16 19 17 17 18 17 16 16 15 15 15 14 13
6 6 7 7 7 7 6 7 6 7 6 6 7 7 7 9 8 8 10 14 18 4 7 6 9 11 9 9 10 10 9 10 15 10 11 13 14 11 10 18 22 22 23 24 24 24 24 24 25 24 24 23 23 23 22 22 21 20 18 18 19 20 19 19 19 19 18 16 16 16 15 15 14 14
5 6 8 8 7 6 7 7 7 7 6 6 7 6 7 8 7 8 9 14 17 8 5 4 6 6 6 6 9 10 10 9 9 11 11 10 10 10 10 11 19 22 22 24 24 24 24 24 24 25 25 24 24 24 24 23 22 21 21 22 22 22 20 20 20 19 19 18 17 17 16 15 15 15
6 6 7 8 8 7 8 8 8 7 7 7 7 7 7 8 9 7 9 13 12 17 5 6 4 3 6 10 5 12 12 11 9 11 11 9 10 11 10 10 11 21 22 23 23 24 24 24 24 25 24 25 25 25 25 24 23 23 23 22 21 21 21 21 21 20 19 18 18 17 16 16 16 15
7 8 7 8 7 6 8 8 7 7 8 7 8 9 7 9 9 7 9 10 14 15 12 6 8 6 5 10 9 10 11 12 12 13 12 12 10 10 11 10 9 14 22 24 24 24 25 24 24 24 25 25 25 25 25 25 24 24 23 23 23 22 22 22 22 21 20 20 19 18 17 17 16 16
8 8 9 8 6 5 8 9 8 7 7 8 8 9 8 8 9 8 8 11 12 11 13 7 7 5 7 9 6 6 8 9 8 10 9 8 9 9 8 10 10 11 19 23 24 24 25 26 24 25 25 25 25 25 25 26 25 25 24 23 24 23 23 23 24 22 22 21 20 19 19 18 18 17
10 10 9 10 7 6 7 8 8 7 8 8 8 9 9 8 8 7 8 10 10 12 14 11 5 6 7 5 5 6 8 7 7 5 9 10 10 9 7 6 7 8 16 21 23 22 24 27 27 25 25 25 25 25 26 26 26 25 25 24 24 24 24 24 23 22 22 22 21 20 20 20 19 18
9 10 11 10 9 7 8 9 9 8 9 9 9 10 10 9 8 8 9 9 10 11 13 11 10 5 7 6 6 7 8 9 9 8 8 5 5 7 7 8 7 8 8 9 12 18 20 24 27 26 25 26 26 26 27 27 27 25 24 24 23 24 24 25 23 22 22 21 20 21 21 20 19 19
10 11 11 11 10 10 9 10 10 9 9 9 10 10 10 9 8 9 10 9 10 12 12 11 10 10 7 8 10 6 8 10 11 13 10 10 7 6 10 11 9 8 9 11 14 12 11 12 15 23 27 27 27 26 26 27 28 25 22 23 24 24 25 25 24 23 23 22 21 21 21 20 20 19
11 11 11 11 11 11 10 10 11 10 10 9 10 9 9 9 9 10 10 9 9 11 11 12 11 8 8 7 6 0 4 7 9 9 8 12 10 11 11 12 11 9 9 10 9 10 10 11 14 18 23 28 26 26 25 28 26 24 23 24 25 25 26 25 25 24 24 23 22 23 20 20 20 20
15 14 11 11 11 11 14 18 17 16 14 10 10 10 9 8 9 9 9 10 9 10 11 12 10 9 8 8 9 8 9 13 14 5 5 10 10 8 7 9 9 8 10 10 8 9 11 10 10 11 12 15 22 22 24 19 25 24 24 25 26 26 26 25 25 25 25 23 23 23 21 20 20 19
15 15 15 14 18 18 19 19 20 20 21 21 16 13 11 10 10 10 10 11 10 10 11 12 11 11 11 11 10 11 12 10 5 6 10 12 6 4 9 8 9 9 9 8 10 11 9 10 11 11 13 13 14 12 14 14 16 20 27 26 26 26 26 26 26 27 25 23 23 23 21 20 20 18
15 14 13 13 15 16 16 15 18 20 22 21 23 25 23 18 13 11 12 12 11 11 11 11 11 11 13 14 10 12 10 8 11 11 10 10 8 10 11 14 5 9 11 11 9 10 9 11 13 13 14 13 12 13 14 20 21 23 27 28 26 26 27 27 27 27 27 24 25 23 22 21 21 20
12 11 12 11 11 11 14 15 15 16 19 22 22 24 24 24 24 22 16 14 12 12 12 13 13 11 14 13 10 9 9 9 9 10 9 11 13 12 13 13 13 5 14 10 10 14 9 11 13 14 14 13 12 13 14 21 26 25 26 28 28 27 27 27 27 29 28 27 25 24 24 23 22 21
12 12 13 12 11 10 21 17 14 14 15 16 20 20 23 25 25 25 27 25 19 13 14 13 15 14 13 14 12 9 10 8 12 10 11 11 12 12 13 14 11 4 13 11 11 14 12 13 14 15 15 12 11 11 16 24 26 27 27 28 28 28 28 28 28 29 30 28 26 26 25 24 23 22
13 13 11 13 13 12 11 13 15 16 16 16 16 14 14 14 16 19 24 26 27 23 16 15 17 16 13 14 12 9 8 11 13 11 13 12 12 13 16 13 7 6 13 17 13 12 10 11 12 14 13 10 11 12 16 25 27 28 28 27 29 29 30 29 28 29 30 28 27 26 25 24 23 22
12 13 13 13 14 13 14 12 18 17 17 16 15 15 16 15 15 15 14 14 14 14 14 16 18 19 17 15 15 10 8 13 13 13 14 15 14 13 12 10 9 8 11 12 10 14 12 10 11 15 13 10 12 12 15 24 27 29 28 28 27 29 30 30 30 29 30 28 27 26 25 24 23 23
16 14 13 12 13 14 13 20 29 26 21 19 21 21 19 16 15 16 16 18 18 17 15 14 15 16 17 15 14 12 9 9 9 8 7 6 7 8 9 13 9 11 8 12 13 10 9 8 13 14 8 8 12 11 10 19 27 29 30 29 28 29 30 31 30 29 30 27 27 26 25 24 24 23
16 15 12 12 13 16 17 24 29 29 27 20 21 21 22 20 18 17 16 22 26 25 25 24 23 23 24 23 22 21 21 15 8 7 8 11 9 10 12 13 10 11 8 10 13 11 10 7 12 10 6 10 12 10 11 11 20 27 30 29 30 30 31 32 30 31 29 28 27 26 26 24 23 24
15 17 24 22 18 18 17 22 25 26 22 18 18 18 19 19 20 19 17 14 14 21 23 25 28 28 27 27 24 22 22 24 18 10 14 11 10 13 12 15 12 8 8 10 13 9 13 6 6 4 1 3 5 9 9 9 11 20 24 31 32 31 31 31 32 31 29 28 27 26 26 25 23 16
14 15 17 25 24 22 25 32 30 31 25 18 18 18 19 21 21 18 15 16 15 13 13 14 15 17 22 21 17 16 24 24 21 15 15 11 12 12 14 14 9 9 11 12 15 13 11 8 4 8 4 5 4 5 7 9 10 11 11 15 20 31 30 31 30 28 28 27 27 26 27 27 23 10
10 12 13 16 21 25 26 27 28 27 27 19 16 16 16 19 24 19 19 17 14 15 15 15 15 16 14 14 13 12 14 16 16 16 15 13 13 13 14 13 13 14 11 5 16 13 10 7 7 9 10 8 6 5 8 8 10 10 11 11 12 21 28 28 25 30 28 27 28 27 27 28 23 10
14 13 13 13 19 26 28 30 32 31 30 28 20 17 17 18 21 22 18 20 29 20 17 16 15 14 13 13 12 11 11 12 12 13 14 14 14 14 14 13 13 14 13 7 20 12 11 7 10 7 6 5 0 3 4 8 8 10 12 13 13 12 13 15 11 15 22 28 28 28 29 28 30 17
12 11 13 11 20 31 31 32 31 32 30 30 21 21 32 34 34 26 21 19 16 16 17 16 15 14 14 13 12 11 11 12 12 12 13 14 14 15 14 15 14 13 15 11 26 14 11 8 11 11 9 9 5 3 4 4 7 9 9 9 11 11 12 12 11 12 13 13 15 20 22 30 29 28
13 11 11 13 25 30 31 31 32 31 33 27 22 32 34 35 37 30 19 18 18 17 17 16 16 15 14 13 13 12 11 12 12 12 12 14 14 14 14 15 15 15 12 8 15 13 12 9 9 13 12 11 10 3 3 6 5 8 8 10 9 8 9 10 11 11 11 12 11 23 26 29 31 30
11 13 13 16 27 31 31 32 32 32 31 24 32 33 34 34 33 21 18 16 17 18 18 17 17 16 14 13 13 13 12 12 12 13 13 12 12 12 12 13 14 13 11 9 13 13 12 11 8 11 13 12 11 11 9 3 3 9 11 10 9 9 9 10 11 10 10 10 9 12 12 12 14 17
14 21 33 34 33 31 32 33 32 26 26 29 29 32 32 30 16 15 15 16 15 17 18 18 17 15 15 15 14 13 12 12 10 8 8 9 10 10 11 11 11 12 11 7 12 12 12 12 11 10 10 9 12 11 10 8 7 8 10 10 8 9 9 8 8 9 10 10 11 12 12 11 11 11
34 35 34 36 35 31 26 19 14 12 14 23 28 31 30 17 13 14 14 16 16 18 18 20 20 17 14 13 13 13 11 10 10 9 10 9 9 9 9 9 8 3 4 7 11 11 12 12 11 11 11 11 12 11 11 8 6 6 9 12 10 6 7 9 11 11 11 11 10 10 8 8 9 9
19 23 24 20 25 25 33 33 30 27 26 20 18 14 12 12 13 13 14 14 17 19 19 19 19 15 14 11 11 11 9 11 11 11 10 10 10 9 9 10 9 7 4 3 6 10 12 12 11 11 12 11 11 12 10 9 8 9 9 10 10 12 9 10 5 8 9 9 8 7 7 5 6 5
17 15 18 23 18 16 15 15 13 12 13 14 13 11 11 12 14 17 24 25 20 19 19 17 17 15 13 13 12 10 11 11 11 10 10 11 10 9 8 8 10 8 6 4 4 5 6 10 11 10 12 12 13 11 7 8 10 10 9 10 10 8 5 12 13 9 10 9 8 9 9 7 5 6
12 12 13 13 13 12 12 12 13 12 11 11 12 14 13 12 12 12 11 12 14 16 16 17 18 16 14 12 10 11 11 11 11 9 10 10 10 7 9 11 11 9 9 8 6 5 3 2 0 4 8 8 9 11 11 9 9 9 11 11 11 10 8 12 8 6 6 8 9 9 8 6 5 5
11 9 9 9 10 11 10 12 12 13 13 12 12 12 16 14 11 10 11 13 13 15 16 15 15 16 15 13 11 11 12 10 10 10 12 10 9 9 10 11 11 9 9 9 8 8 5 4 5 6 6 5 5 1 8 13 11 10 10 10 11 11 10 12 11 11 9 11 12 11 9 7 6 5
9 9 10 10 10 11 11 12 12 13 12 12 11 10 11 10 11 13 11 13 14 15 15 15 14 14 12 12 11 11 11 11 10 8 9 9 9 10 10 11 10 9 9 8 8 7 7 7 8 6 4 3 2 2 2 2 8 10 8 9 10 10 9 11 11 7 7 7 8 11 5 4 5 6
8 8 9 11 11 12 12 12 12 12 12 12 11 10 10 10 11 11 10 12 12 11 10 13 13 12 12 13 12 11 11 11 10 9 9 9 9 9 9 10 10 9 9 9 9 8 9 9 10 11 10 8 9 8 9 7 6 8 12 9 8 8 8 9 9 9 10 11 6 6 11 9 6 7
9 9 10 10 11 11 13 13 13 12 13 12 11 10 11 11 11 10 11 13 13 11 10 8 8 9 10 11 10 10 10 11 10 10 10 10 9 9 9 9 9 8 9 9 9 9 9 11 10 12 12 11 11 14 11 4 2 5 7 11 8 9 10 10 9 8 5 4 6 6 9 6 7 6
9 9 10 11 12 13 13 13 13 13 12 11 10 10 10 11 11 12 12 11 12 10 10 9 9 9 10 10 9 9 9 9 10 10 10 10 10 10 11 11 10 9 9 8 8 10 10 11 12 12 12 13 14 13 10 2 3 4 6 9 11 9 9 10 10 11 10 8 6 5 5 4 5 6
9 10 11 11 12 12 12 12 13 13 13 10 10 10 10 9 10 11 11 11 11 10 9 9 10 9 9 7 8 8 9 9 10 9 10 10 11 11 11 10 9 8 8 7 7 8 8 9 11 12 12 13 14 13 10 9 8 7 10 14 12 13 11 13 12 10 9 9 7 4 5 5 8 9
11 11 11 12 12 13 14 13 14 15 13 10 9 8 8 9 9 10 11 10 9 9 8 7 6 4 5 5 6 7 8 8 8 7 7 8 8 10 10 10 10 9 9 9 8 8 10 11 11 11 10 6 1 4 6 6 4 4 5 12 16 9 11 11 11 11 9 7 8 9 8 5 4 3
12 12 12 12 13 13 13 13 14 16 13 9 8 8 9 9 10 10 10 9 8 8 7 6 6 5 5 5 5 5 6 7 9 9 9 9 10 11 11 10 7 8 10 10 10 10 12 11 6 7 8 6 7 8 8 7 7 7 6 5 13 9 8 7 6 7 9 9 8 10 9 8 6 4
11 12 12 12 11 14 13 13 14 14 13 8 7 7 8 8 9 13 13 13 11 9 8 7 6 5 5 5 5 7 8 8 8 8 8 8 9 8 8 8 8 9 10 10 12 12 6 6 7 7 6 7 8 9 9 10 9 8 8 6 6 11 14 14 11 9 7 8 10 9 6 4 4 4
11 11 12 13 12 12 12 13 13 13 14 11 8 8 8 9 8 9 8 9 9 8 7 6 5 6 6 6 6 7 8 8 8 8 8 9 9 9 9 10 10 10 11 7 4 6 7 7 6 7 6 6 6 6 9 7 8 9 8 9 8 6 8 13 14 14 13 13 10 7 5 5 6 6
10 11 11 11 12 13 12 12 13 13 13 12 11 9 7 7 8 8 7 7 7 6 5 5 5 5 5 5 4 5 6 6 6 8 8 8 9 9 9 8 7 7 6 6 7 7 7 7 7 7 8 7 5 5 6 7 7 8 9 8 6 8 7 5 6 11 12 13 15 14 11 8 5 5
10 10 11 12 11 11 12 12 12 12 12 12 11 10 9 8 7 7 6 7 6 7 5 4 3 3 2 3 5 5 4 4 5 4 4 4 5 5 5 6 6 7 7 7 8 7 7 7 6 5 4 4 2 3 5 8 9 8 8 9 10 8 7 6 7 7 6 5 6 9 6 5 3 2
Wind_Direction
276 275 267 262 270 269 262 253 252 253 254 247 243 231 238 244 256 266 264 257 241 246 209 225 234 205 214 217 216 215 214 216 205 201 207 212 215 218 218 218 219 217 213 209 207 206 205 207 210 215 215 218 222 224 228 234 233 244 231 226 223 216 214 212 213 216 212 207 207 207 202 203 203 202
283 276 279 269 268 266 268 259 246 248 248 250 241 239 240 233 246 257 262 268 195 243 228 216 231 204 218 216 217 211 217 216 203 205 207 211 215 214 216 217 219 220 218 212 208 206 205 206 209 213 214 215 216 219 222 222 222 184 210 194 179 195 211 214 217 215 210 207 205 205 204 203 203 201
295 287 283 279 273 267 265 265 258 247 247 249 246 247 236 239 242 253 259 272 255 170 227 231 230 219 217 210 215 213 219 215 205 206 209 214 214 211 216 218 220 222 222 216 211 208 206 206 208 210 212 213 213 216 217 214 218 202 208 210 207 212 217 222 221 217 215 211 208 208 206 204 203 201
291 288 285 280 276 277 273 271 266 260 243 239 247 243 241 246 239 245 253 253 265 181 226 216 226 221 218 207 209 214 217 219 209 209 212 217 213 209 215 220 220 222 223 219 214 211 208 207 207 209 211 211 212 213 214 213 214 215 217 217 217 217 219 222 220 217 216 213 212 210 209 206 204 202
292 288 285 284 277 275 274 271 269 269 258 247 244 242 243 248 240 233 247 257 268 264 243 239 229 234 211 234 210 214 214 213 214 212 218 212 206 207 211 216 221 221 222 222 219 214 211 209 208 209 211 212 212 212 211 210 209 211 212 214 216 218 218 218 218 217 216 213 213 212 209 209 207 206
297 286 285 287 287 277 272 275 274 268 270 258 252 245 234 244 246 218 239 257 263 271 247 270 263 266 199 235 200 208 207 215 209 214 215 210 206 208 209 211 217 218 219 221 221 219 215 212 210 210 211 213 213 213 210 209 207 207 208 209 213 216 215 216 218 217 216 216 215 214 212 209 207 206
298 298 289 283 281 283 281 276 267 267 266 262 259 258 236 244 246 231 226 248 261 266 266 220 246 225 224 217 220 209 219 216 207 210 211 207 208 212 208 210 216 216 218 219 221 221 219 216 214 211 212 213 214 213 212 210 207 206 206 206 208 211 213 213 215 215 214 214 214 213 212 209 208 205
287 284 290 287 279 274 278 279 278 267 259 261 262 262 256 245 250 237 229 232 250 263 270 237 224 225 216 238 237 220 226 220 216 217 221 216 217 214 209 213 216 217 219 220 221 222 221 222 217 215 213 213 214 214 214 212 209 206 205 205 206 207 210 212 212 212 212 212 213 212 211 210 208 205
281 279 273 276 279 272 273 276 275 272 268 263 260 261 261 254 252 247 234 240 239 255 258 262 220 232 236 248 233 209 204 220 226 223 220 215 217 214 213 213 218 215 221 224 224 224 223 224 221 216 215 214 215 215 216 214 212 208 205 205 206 207 208 210 214 210 210 210 210 211 208 207 206 203
280 275 274 274 272 270 266 270 271 268 266 265 263 263 263 258 255 254 249 243 248 247 256 256 259 224 233 246 233 208 202 203 213 226 229 227 215 206 210 216 213 211 210 213 222 225 225 224 222 218 217 216 215 215 217 216 214 210 206 205 205 207 207 209 210 210 210 209 209 210 209 207 205 203
281 276 274 273 269 265 262 266 266 265 265 262 260 259 263 260 258 256 254 249 247 250 256 258 245 247 224 218 239 222 204 216 210 208 204 222 212 203 210 221 216 212 216 221 222 222 221 224 224 224 221 219 217 216 217 219 217 213 206 204 204 206 209 209 209 209 210 209 208 209 208 207 206 204
280 275 272 271 269 263 261 262 267 264 263 261 263 259 256 257 256 256 259 255 250 253 256 254 257 237 232 224 241 106 180 229 244 228 208 215 206 210 214 217 212 210 209 215 219 226 224 223 225 227 227 226 222 218 217 219 217 213 206 205 204 205 208 209 210 209 209 207 206 207 205 207 207 205
295 290 281 272 268 263 262 261 262 262 258 260 266 261 255 251 253 255 255 254 252 253 254 259 254 249 234 226 212 206 206 209 225 192 186 229 222 212 223 234 224 204 204 215 209 217 211 215 217 219 223 224 222 221 216 216 216 211 208 206 205 205 206 208 210 210 209 205 205 206 203 204 206 206
288 289 289 287 280 276 274 271 267 263 263 261 256 259 259 253 252 249 253 252 249 251 254 253 254 249 244 234 217 218 219 216 200 178 203 224 212 158 227 243 225 206 198 197 212 218 204 207 219 217 226 227 217 221 214 212 207 209 211 208 207 204 205 207 210 211 209 204 205 204 202 202 203 203
285 286 288 289 291 290 286 281 274 269 263 257 261 262 259 252 246 253 251 250 246 248 249 253 250 247 251 245 223 222 220 203 203 210 203 214 194 202 204 229 226 193 185 206 212 226 203 199 215 217 222 220 215 218 216 212 204 207 211 213 208 206 205 206 208 211 210 204 204 201 201 201 200 201
280 283 285 285 287 286 285 285 283 276 270 265 261 260 263 263 256 247 243 248 252 243 248 250 248 246 245 251 234 222 212 208 207 215 205 207 207 210 218 227 227 186 179 188 204 232 197 199 217 222 222 217 214 220 214 210 210 207 207 212 212 209 207 206 207 209 209 203 200 199 199 199 198 198
278 280 282 282 276 276 284 286 284 284 283 275 270 263 264 263 260 257 252 246 244 246 247 249 253 242 247 250 243 219 212 186 211 204 214 213 217 219 224 227 223 144 177 180 213 229 212 190 212 222 223 211 208 216 215 213 212 210 208 209 211 212 211 208 208 208 208 203 200 199 198 198 198 198
280 277 277 279 278 277 280 282 285 286 285 285 283 278 271 264 260 257 255 255 252 247 244 243 250 251 240 246 248 232 188 195 211 206 216 211 216 217 227 227 211 158 177 189 196 232 218 192 208 225 226 200 209 213 212 214 213 212 209 206 208 209 213 211 209 209 208 202 200 199 198 198 198 197
273 274 273 274 277 279 278 275 280 284 285 285 282 276 271 266 263 260 256 253 251 248 244 243 244 250 248 244 248 239 197 211 214 210 212 210 214 220 232 240 217 201 197 192 186 228 222 182 201 225 216 197 212 214 210 214 216 216 212 209 207 207 210 212 211 210 208 201 199 198 197 198 198 199
287 286 285 287 286 285 284 282 281 281 282 282 283 281 278 272 265 261 255 249 246 246 244 245 246 248 247 241 240 238 219 223 224 224 228 226 218 218 227 233 219 220 191 195 199 231 234 158 200 228 203 189 215 212 208 216 218 218 216 213 210 209 209 210 209 209 207 200 198 197 197 196 198 201
284 280 277 271 273 274 274 278 279 278 277 274 271 270 271 272 271 266 261 254 250 248 244 242 244 247 249 245 239 236 230 226 208 208 211 217 201 215 227 237 225 225 179 204 207 223 236 181 201 218 177 195 212 209 207 212 217 219 218 216 213 211 209 210 207 207 204 199 197 196 195 195 198 200
289 289 291 291 290 288 285 288 287 285 282 280 281 282 278 273 265 261 260 260 254 249 249 250 251 250 251 250 244 237 232 231 223 202 222 215 204 219 218 233 226 224 203 201 196 208 231 187 192 167 90 200 227 212 208 203 212 221 223 221 218 214 211 211 208 204 200 198 196 195 194 195 196 196
291 292 294 292 291 289 288 288 286 283 279 273 271 272 275 276 275 271 269 261 260 258 254 253 252 252 252 252 247 240 238 234 229 221 224 218 213 217 223 229 230 235 228 208 180 202 226 199 195 170 126 221 252 211 199 197 203 206 213 218 218 215 211 211 208 201 199 197 197 195 194 195 193 185
275 276 277 280 285 288 290 292 293 292 287 279 267 263 262 263 265 266 270 271 267 260 254 252 247 248 248 249 245 241 238 237 230 228 223 221 215 219 226 223 219 229 231 166 165 202 222 187 182 198 191 199 230 188 192 202 198 200 204 207 212 213 211 209 206 200 197 197 196 197 196 196 191 177
283 286 286 291 292 293 292 291 290 288 286 285 283 274 263 258 267 271 265 264 263 261 258 251 249 248 244 245 238 234 232 230 227 225 224 221 217 217 223 223 221 234 231 178 170 192 208 173 196 178 222 237 243 129 215 197 201 198 203 203 204 202 200 202 193 194 197 198 198 197 200 198 197 188
277 279 283 282 285 285 285 285 285 283 281 279 277 274 275 272 268 265 266 269 265 253 248 247 244 242 239 241 236 230 228 227 224 222 221 222 219 217 219 219 219 228 230 184 176 191 192 201 186 187 198 201 247 143 153 200 206 201 205 210 207 200 197 193 191 192 190 194 197 200 200 200 201 196
277 273 267 266 277 280 280 281 280 280 280 280 276 275 276 276 276 271 261 260 263 262 252 241 237 236 235 233 233 226 226 225 223 223 219 222 222 221 223 222 223 229 232 165 183 192 199 208 186 192 195 200 210 147 184 173 202 188 204 208 208 200 199 190 194 192 191 191 191 196 197 202 204 202
273 277 273 270 274 278 277 276 278 280 281 280 280 280 277 274 273 273 273 260 255 258 261 248 236 232 228 229 228 225 220 222 221 221 221 223 224 224 226 227 230 232 228 166 187 197 198 206 194 201 197 189 197 199 214 196 94 184 192 200 196 195 196 196 195 191 191 187 183 189 188 193 199 201
276 276 278 280 282 283 287 290 291 292 290 288 284 280 280 279 275 269 266 265 255 250 251 252 244 234 227 224 226 223 220 221 223 220 225 222 222 222 224 227 226 226 224 177 192 195 199 205 200 187 197 194 199 208 202 200 171 190 183 173 195 206 203 201 195 190 188 186 186 186 187 183 185 188
280 281 283 286 290 292 289 286 282 272 271 271 272 276 276 272 271 274 275 274 268 257 251 251 248 238 229 225 222 222 217 213 212 206 213 210 217 210 215 220 226 241 222 185 195 196 201 206 203 186 193 199 202 205 203 180 186 185 184 192 192 182 203 195 198 194 187 187 186 185 180 180 185 184
269 270 271 271 272 275 281 282 282 282 281 281 278 274 268 263 264 265 266 265 264 261 255 252 249 243 230 222 217 214 202 208 212 205 206 204 211 198 205 209 217 203 222 239 214 202 203 207 205 185 193 201 205 209 198 190 187 176 184 189 176 190 194 188 156 188 184 184 181 175 176 168 177 182
252 254 260 265 264 269 271 274 268 265 262 260 262 259 263 264 261 263 266 268 265 258 251 247 252 244 232 215 212 205 204 211 211 202 200 202 205 195 184 202 217 202 197 213 235 247 231 211 206 200 200 197 202 203 190 187 194 183 181 186 194 199 176 175 188 176 175 166 169 185 187 179 163 170
246 243 255 255 263 258 259 257 257 254 249 250 256 262 258 256 258 263 261 265 264 254 242 242 244 243 232 225 208 205 203 210 210 193 201 203 197 181 185 205 211 196 192 204 196 202 179 214 332 208 202 207 211 191 176 188 203 185 183 185 188 192 175 183 175 128 143 163 184 182 178 175 165 169
296 285 269 270 272 275 273 271 270 267 263 260 258 257 263 262 260 263 270 272 270 257 242 238 239 237 232 225 210 201 208 207 208 198 197 200 187 178 191 206 216 202 199 198 182 182 156 124 108 70 61 61 31 179 195 196 193 189 187 185 184 190 182 163 175 171 170 181 176 175 179 179 168 166
294 290 289 288 283 279 281 280 275 273 269 261 256 254 256 257 262 267 269 274 274 262 238 231 231 234 236 230 215 205 203 207 200 190 193 190 183 190 195 204 214 198 194 186 177 173 159 155 139 117 80 66 106 306 346 260 196 188 182 189 186 182 173 176 174 161 137 160 149 162 169 66 165 165
312 303 299 298 292 290 282 277 275 271 265 259 254 254 259 264 263 264 266 273 279 275 253 234 227 226 228 228 224 211 202 199 196 184 186 185 188 196 203 207 210 201 191 192 179 171 168 171 168 170 178 180 193 209 230 215 213 185 176 179 173 161 165 167 171 170 157 174 176 153 172 176 165 165
308 303 296 289 288 287 287 284 285 281 273 266 261 254 257 262 264 261 265 275 277 271 259 256 243 233 231 229 219 209 199 191 193 184 185 187 188 193 200 209 208 197 192 195 175 172 172 179 184 182 186 191 195 211 209 105 193 241 181 168 160 166 159 155 161 169 168 156 147 171 168 146 155 165
303 301 296 295 293 292 290 290 290 286 278 265 257 257 253 256 263 269 274 277 274 268 258 249 243 238 234 228 218 204 197 191 189 184 186 184 186 195 201 204 203 193 196 181 173 181 183 182 187 191 190 195 202 211 197 148 149 236 197 175 157 156 152 154 169 173 175 169 117 147 139 121 156 152
322 317 313 309 307 305 301 296 294 289 283 267 257 256 262 261 264 272 276 274 272 266 259 251 242 231 221 210 207 193 188 187 192 191 189 191 191 196 200 203 199 189 175 173 174 183 183 193 196 196 198 199 207 209 189 166 188 185 181 183 160 160 171 173 174 168 164 162 155 111 68 91 84 107
317 315 313 313 310 311 306 303 302 298 285 268 257 257 261 266 269 273 275 273 268 263 260 256 256 245 219 206 188 176 177 186 193 188 187 190 195 197 201 198 194 176 175 178 174 186 192 201 197 200 204 200 28 65 103 111 71 89 147 186 184 176 175 166 164 159 159 153 142 135 138 129 115 169
318 315 314 312 308 303 302 303 307 306 292 269 260 260 259 263 270 270 274 273 268 264 256 248 244 232 204 180 180 186 198 194 189 190 191 197 199 201 199 187 173 171 175 186 186 187 200 204 180 113 95 110 125 102 96 109 128 154 163 165 182 167 151 139 133 141 150 150 143 147 137 144 148 147
316 312 309 307 302 300 301 307 311 313 307 279 265 262 265 266 265 274 278 277 272 265 259 257 247 236 231 214 198 187 196 200 204 205 195 189 189 190 184 175 176 177 181 188 190 198 172 115 125 124 127 129 142 155 177 175 158 150 155 151 137 165 163 157 146 135 143 142 142 139 123 109 103 118
317 312 312 309 307 305 305 310 313 319 325 314 285 273 271 272 272 272 272 272 267 259 253 253 235 228 228 218 210 202 206 208 200 194 186 185 182 180 181 185 186 183 189 184 128 122 135 142 125 131 146 152 173 175 180 166 152 149 145 138 146 138 146 157 157 158 156 154 148 141 137 141 146 167
315 315 313 315 317 315 313 318 321 325 327 330 328 321 307 297 291 290 287 281 279 271 258 254 249 225 220 201 191 190 197 195 183 181 180 184 184 184 185 181 171 162 145 123 129 135 133 144 151 149 156 172 169 152 156 137 146 152 149 142 127 125 118 106 134 151 152 157 165 167 158 143 129 130
315 315 315 316 312 313 317 318 323 325 328 327 329 330 331 332 328 325 329 332 322 311 302 285 265 248 185 164 164 180 173 154 150 144 148 153 160 154 145 146 143 141 140 140 134 136 140 142 144 144 141 127 93 141 144 148 149 141 141 140 136 130 121 127 127 121 111 73 85 110 113 110 94 99